• In Czech Republic
  • List of Countries
  • For 7 days
  • Water Temperature
  • Satellite Maps
  • Weather Map
  • Weather Widgets
  • user-avatar
    Login

    Hourly Weather Nkongsamba

    Today, 19 October, Thursday

    Time Temperature Precipitation Wind Pressure Humidity
    00:00 +19°C° 0.2 mm 0 mps 687 mmHg 96%
    01:00 +19°C° 0 mm 0 mps 686 mmHg 97%
    02:00 +18°C° 0.2 mm 0 mps 686 mmHg 97%
    03:00 +18°C° 0.2 mm 0 mps 686 mmHg 96%
    04:00 +18°C° 0.2 mm 0 mps 686 mmHg 96%
    05:00 +18°C° 0 mm 0 mps 686 mmHg 95%
    06:00 +19°C° 0 mm 0 mps 686 mmHg 94%
    07:00 +19°C° 0 mm 0 mps 687 mmHg 93%
    08:00 +21°C° 0.1 mm 0 mps 687 mmHg 83%
    09:00 +26°C° 0.1 mm 1 mps 688 mmHg 74%
    10:00 +28°C° 0.1 mm 1 mps 688 mmHg 64%
    11:00 +28°C° 0.6 mm 1 mps 688 mmHg 65%
    12:00 +29°C° 0.6 mm 1 mps 687 mmHg 66%
    13:00 +29°C° 0.6 mm 1 mps 687 mmHg 67%
    14:00 +28°C° 1.3 mm 1 mps 686 mmHg 71%
    15:00 +28°C° 1.3 mm 1 mps 686 mmHg 75%
    16:00 +27°C° 1.3 mm 1 mps 685 mmHg 79%
    17:00 +26°C° 1.1 mm 1 mps 685 mmHg 84%
    18:00 +22°C° 1.1 mm 0 mps 685 mmHg 89%
    19:00 +20°C° 1.1 mm 0 mps 685 mmHg 94%
    20:00 +20°C° 0.6 mm 0 mps 686 mmHg 94%
    21:00 +20°C° 0.6 mm 0 mps 687 mmHg 95%
    22:00 +19°C° 0.6 mm 0 mps 687 mmHg 96%
    23:00 +19°C° 0.4 mm 0 mps 687 mmHg 96%

    Tomorrow, 20 October, Friday

    Time Temperature Precipitation Wind Pressure Humidity
    00:00 +19°C° 0.4 mm 0 mps 687 mmHg 96%
    01:00 +19°C° 0.4 mm 0 mps 686 mmHg 96%
    02:00 +19°C° 0 mm 0 mps 686 mmHg 96%
    03:00 +18°C° 0 mm 0 mps 686 mmHg 96%
    04:00 +18°C° 0 mm 0 mps 685 mmHg 96%
    05:00 +19°C° 0 mm 0 mps 686 mmHg 95%
    06:00 +19°C° 0 mm 0 mps 686 mmHg 94%
    07:00 +19°C° 0 mm 0 mps 687 mmHg 93%
    08:00 +22°C° 0 mm 0 mps 687 mmHg 82%
    09:00 +26°C° 0 mm 1 mps 688 mmHg 70%
    10:00 +29°C° 0 mm 1 mps 689 mmHg 59%
    11:00 +29°C° 0.3 mm 1 mps 688 mmHg 58%
    12:00 +30°C° 0.3 mm 1 mps 688 mmHg 57%
    13:00 +30°C° 0.3 mm 2 mps 687 mmHg 56%
    14:00 +30°C° 0.6 mm 2 mps 686 mmHg 61%
    15:00 +29°C° 0.6 mm 1 mps 686 mmHg 66%
    16:00 +28°C° 0.6 mm 1 mps 685 mmHg 72%
    17:00 +26°C° 0.3 mm 1 mps 685 mmHg 78%
    18:00 +25°C° 0.3 mm 1 mps 685 mmHg 85%
    19:00 +21°C° 0.3 mm 0 mps 686 mmHg 92%
    20:00 +21°C° 0.6 mm 0 mps 686 mmHg 93%
    21:00 +20°C° 0.6 mm 0 mps 687 mmHg 94%
    22:00 +20°C° 0.6 mm 0 mps 687 mmHg 96%
    23:00 +20°C° 0.4 mm 0 mps 687 mmHg 96%

    Day after tomorrow, 21 October, Saturday

    Time Temperature Precipitation Wind Pressure Humidity
    00:00 +19°C° 0.4 mm 0 mps 687 mmHg 96%
    01:00 +19°C° 0.4 mm 0 mps 686 mmHg 96%
    02:00 +19°C° 0.3 mm 0 mps 686 mmHg 96%
    03:00 +19°C° 0.3 mm 0 mps 686 mmHg 96%
    04:00 +19°C° 0.3 mm 0 mps 685 mmHg 96%
    05:00 +19°C° 0 mm 0 mps 686 mmHg 95%
    06:00 +19°C° 0 mm 0 mps 686 mmHg 94%
    07:00 +19°C° 0 mm 0 mps 687 mmHg 93%
    08:00 +22°C° 0 mm 0 mps 687 mmHg 82%
    09:00 +27°C° 0 mm 1 mps 688 mmHg 71%
    10:00 +29°C° 0 mm 1 mps 689 mmHg 60%
    11:00 +29°C° 0.3 mm 1 mps 688 mmHg 60%
    12:00 +30°C° 0.3 mm 1 mps 687 mmHg 59%
    13:00 +30°C° 0.3 mm 1 mps 687 mmHg 59%
    14:00 +29°C° 1 mm 1 mps 686 mmHg 65%
    15:00 +28°C° 1 mm 1 mps 685 mmHg 71%
    16:00 +28°C° 1 mm 1 mps 685 mmHg 77%
    17:00 +26°C° 1.3 mm 1 mps 685 mmHg 83%
    18:00 +24°C° 1.3 mm 1 mps 685 mmHg 88%
    19:00 +23°C° 1.3 mm 1 mps 686 mmHg 94%
    20:00 +22°C° 0.7 mm 1 mps 686 mmHg 95%
    21:00 +20°C° 0.7 mm 0 mps 687 mmHg 95%
    22:00 +20°C° 0.7 mm 0 mps 687 mmHg 96%
    23:00 +20°C° 0.1 mm 0 mps 687 mmHg 96%

    22 October, Sunday

    Time Temperature Precipitation Wind Pressure Humidity
    00:00 +20°C° 0.1 mm 0 mps 687 mmHg 96%
    01:00 +20°C° 0.1 mm 0 mps 686 mmHg 97%
    02:00 +20°C° 0.1 mm 0 mps 686 mmHg 97%
    03:00 +19°C° 0.1 mm 0 mps 686 mmHg 97%
    04:00 +19°C° 0.1 mm 0 mps 685 mmHg 97%
    05:00 +19°C° 0.2 mm 0 mps 686 mmHg 96%
    06:00 +20°C° 0.2 mm 0 mps 686 mmHg 95%
    07:00 +20°C° 0.2 mm 0 mps 687 mmHg 95%
    08:00 +22°C° 0 mm 0 mps 688 mmHg 86%
    09:00 +24°C° 0 mm 0 mps 688 mmHg 78%
    10:00 +28°C° 0 mm 1 mps 689 mmHg 69%
    11:00 +28°C° 0.4 mm 1 mps 688 mmHg 68%
    12:00 +28°C° 0.4 mm 1 mps 687 mmHg 67%
    13:00 +29°C° 0.4 mm 1 mps 686 mmHg 66%
    14:00 +28°C° 1.2 mm 1 mps 686 mmHg 71%
    15:00 +27°C° 1.2 mm 1 mps 685 mmHg 77%
    16:00 +26°C° 1.2 mm 1 mps 685 mmHg 83%
    17:00 +25°C° 1 mm 1 mps 685 mmHg 87%
    18:00 +24°C° 1 mm 1 mps 685 mmHg 91%
    19:00 +20°C° 1 mm 0 mps 686 mmHg 95%
    20:00 +20°C° 0.1 mm 0 mps 686 mmHg 96%
    21:00 +20°C° 0.1 mm 0 mps 687 mmHg 96%
    22:00 +20°C° 0.1 mm 0 mps 687 mmHg 97%
    23:00 +20°C° 0.2 mm 0 mps 687 mmHg 97%

    23 October, Monday

    Time Temperature Precipitation Wind Pressure Humidity
    00:00 +19°C° 0.2 mm 0 mps 686 mmHg 97%
    01:00 +19°C° 0.2 mm 0 mps 686 mmHg 97%
    02:00 +19°C° 0.4 mm 0 mps 686 mmHg 97%
    03:00 +19°C° 0.4 mm 0 mps 685 mmHg 97%
    04:00 +19°C° 0.4 mm 0 mps 685 mmHg 96%
    05:00 +19°C° 0.1 mm 0 mps 686 mmHg 96%
    06:00 +19°C° 0.1 mm 0 mps 686 mmHg 95%
    07:00 +20°C° 0.1 mm 0 mps 687 mmHg 94%
    08:00 +22°C° 0 mm 0 mps 687 mmHg 85%
    09:00 +26°C° 0 mm 1 mps 688 mmHg 76%
    10:00 +28°C° 0 mm 1 mps 688 mmHg 67%
    11:00 +28°C° 0.4 mm 1 mps 687 mmHg 66%
    12:00 +29°C° 0.4 mm 1 mps 687 mmHg 65%
    13:00 +29°C° 0.4 mm 1 mps 686 mmHg 64%
    14:00 +29°C° 1 mm 1 mps 685 mmHg 68%
    15:00 +28°C° 1 mm 1 mps 685 mmHg 71%
    16:00 +27°C° 1 mm 1 mps 684 mmHg 74%
    17:00 +26°C° 0.6 mm 1 mps 685 mmHg 80%
    18:00 +24°C° 0.6 mm 1 mps 685 mmHg 85%
    19:00 +21°C° 0.6 mm 0 mps 685 mmHg 90%
    20:00 +21°C° 0.2 mm 0 mps 685 mmHg 92%
    21:00 +20°C° 0.2 mm 0 mps 686 mmHg 94%
    22:00 +20°C° 0.2 mm 0 mps 686 mmHg 96%
    23:00 +20°C° 0.1 mm 0 mps 686 mmHg 96%

    24 October, Tuesday

    Time Temperature Precipitation Wind Pressure Humidity
    00:00 +19°C° 0.1 mm 0 mps 685 mmHg 96%
    01:00 +19°C° 0.1 mm 0 mps 685 mmHg 97%
    02:00 +19°C° 0.4 mm 0 mps 685 mmHg 97%
    03:00 +19°C° 0.4 mm 0 mps 685 mmHg 97%
    04:00 +19°C° 0.4 mm 0 mps 685 mmHg 97%
    05:00 +19°C° 0.2 mm 0 mps 685 mmHg 96%
    06:00 +20°C° 0.2 mm 0 mps 685 mmHg 95%
    07:00 +20°C° 0.2 mm 0 mps 686 mmHg 94%
    08:00 +21°C° 0 mm 0 mps 686 mmHg 87%
    09:00 +23°C° 0 mm 0 mps 687 mmHg 80%
    10:00 +27°C° 0 mm 1 mps 687 mmHg 74%
    11:00 +27°C° 0.2 mm 1 mps 687 mmHg 71%
    12:00 +28°C° 0.2 mm 1 mps 686 mmHg 68%
    13:00 +28°C° 0.2 mm 1 mps 685 mmHg 66%
    14:00 +28°C° 0.2 mm 1 mps 685 mmHg 65%
    15:00 +28°C° 0.2 mm 1 mps 685 mmHg 65%
    16:00 +28°C° 0.2 mm 1 mps 684 mmHg 65%
    17:00 +27°C° 0.4 mm 1 mps 685 mmHg 73%
    18:00 +25°C° 0.4 mm 1 mps 685 mmHg 81%
    19:00 +21°C° 0.4 mm 0 mps 685 mmHg 89%
    20:00 +21°C° 0.2 mm 0 mps 685 mmHg 90%
    21:00 +20°C° 0.2 mm 0 mps 686 mmHg 92%
    22:00 +20°C° 0.2 mm 0 mps 686 mmHg 93%
    23:00 +20°C° 0.6 mm 0 mps 686 mmHg 94%
    Show more